Simultaneous Nadir Overpasses (SNOs) Predictions

Prediction of SNOs between METOP-A and NOAA-19 Satellite Orbit:

Table of predicted SNOs for the next 14.0 days since TLE Epoch: 11/3/2011
Index Date Time (METOP-A) METOP-A Lat,Lon NOAA-19 Lat,Lon Distance(km) Time Diff (sec)
1 11/11/2011 22:36:19 75.65,-159.96 75.67,-173.53 373.05 28
2 11/11/2011 23:27:24 -74.55, 4.14 -74.54, -2.89 208.46 53
3 11/12/2011 00:18:22 73.64, 169.18 73.68, 166.55 82.53 67
4 11/12/2011 01:09:15 -73.10, -24.72 -73.08, -24.83 3.76 68
5 11/12/2011 01:59:55 73.07, 142.55 73.05, 142.48 2.69 47
6 11/12/2011 02:50:38 -73.03, -50.22 -73.05, -50.27 2.50 26
7 11/12/2011 03:41:18 73.00, 117.05 73.01, 117.04 1.77 5
8 11/12/2011 04:32:01 -72.96, -75.71 -72.96, -75.60 3.38 15
9 11/12/2011 05:22:39
